Location: Berlin
(38.3226°N, 75.2177°W)
Time: 15:05:23
(UTC+00:00)

Cosmos 1269 Rocket - Pass Details

Date: 26 October 2020
Orbit: 773 x 779 km, 74.1° (Epoch: 26 November)

Event Time Altitude Azimuth Distance (km) Brightness Sun altitude
Exits shadow 09:17:08 54° 329° (NNW) 942 4.2 -24.9°
Drops below altitude 10° 09:21:36 10° 11° (N) 2,337 6.6 -24.1°
Sets 09:24:01 0° 15° (NNE) 3,269 7.5 -23.6°
